Weather in Courchevel

France     45°24′54″N   6°38′03″E
temp.,
°C
wind,
m/s
gust,
m/s
humid.,
%
clouds,
%
prec.,
mm/h
press.,
hPa
HPBL,
m
12 may, wed
wed1223:000wnw23100100 2.1 1016145
02:00−1wnw22100100 3.2 1016163
05:00−2nw12100100 0.6 1015151
08:00−2wnw119671 0.8 1015232
11:00+1nw119399 0.1 1013589
14:00+2wnw1189100 0.1 1012713
17:00+2wnw229292 0.1 1011517
20:00+1wnw1295100 0.3 1012196
13 may, thu
thu1323:00−3se229685 0.0 101518
02:00−4se229653 0.0 101519
05:00−2nw019495 0.0 1012195
08:00−1nw1197100 0.2 1012266
11:000wnw33100100 1.0 1010216
14:00−1wnw22100100 1.9 1011172
17:00−1wnw229893 0.4 1011265
20:00−1wnw119570 0.6 1011164
14 may, fri
fri1423:00−4ese229649 0.0 1014110
02:00−6se329311 0.0 101525
05:00−6ese328551 0.0 101422
08:00−2se0082100 0.0 1011126
11:00+1wnw228397 0.1 1010865
14:00+2wnw228298 1.1 1008897
17:00+2wnw338994 2.2 1010710
20:000wnw339990 4.4 1012274
15 may, sat
sat1523:00−2w129690 0.4 1017272
02:00−2wnw019696 0.6 1016223
05:00−2se0196100 0.1 1016191
08:00−1ssw0087100 0.1 1015242
11:00+2wnw2182100 0.0 1012553
14:00+3w2282100 0.1 1012852
17:00+2wnw2299100 1.3 1013264
20:00+1w22100100 3.5 1014170
16 may, sun
sun1623:000sw11100100 4.1 101674
02:00+1sw12100100 7.9 1016149
05:00+1ssw12100100 2.4 1015210
08:00+2w12100100 4.9 1016206
11:00+3sw1199100 1.9 1015224
14:00+5w1197100 2.4 1014258
17:00+4ssw1199100 3.9 1013266
20:00+2ssw1299100 10.0 1014214